ROMMA est une association bénévole à but non lucratif. Votre soutien est indispensable : ADHERER à ROMMA ou FAIRE un DON

Granges-lès-Beaumont - (26, Drôme)

Drôme des Collines (155 m)   Longitude: 04°58'E   Latitude: 45°03'N Station partenaire n°123
 

Détail journalier du     <<     >>

Température Precipitation Humidité Pression Vent Dir Rafale Dir. rafale Ensol.
Heure (°C) (mm) (%) (hPa) (km/h) (km/h) (min)
01:00 4.308810242NO8NO0
02:00 4.608810231---8NNO0
03:00 4.4089102300---0
04:00 5.108910231NNO8NNO0
05:00 6.208410224NNO13O0
06:00 5.709010223ENE13ENE0
07:00 5.8090102203SO0
08:00 5.7091102300---0
09:00 5.70.49210233ENE11E0
10:00 6.109210222ENE8E0
11:00 6.709010233ENE15E0
12:00 7.5088102210E18ESE0
13:00 8.8087102112E21E10
14:00 8.9087102111ENE19ENE0
15:00 9.4085102112ENE21ENE0
16:00 9.6087102211ENE21ENE0
17:00 8.708910228ENE15E0
18:00 7.909110223ENE13E0
19:00 6.609210222E11ESE0
20:00 5.709310233NO8NO0
21:00 4.609310234NO10NO0
22:00 4.3094102402NO0
23:00 3.7095102400---0
minuit 2.909510241---8E0

Graphique du 24-12-2019

 

Serveur OMMA